Overview Statistics Trail Chart Weather Telemetry Raw packets
 

This is the latest recevied weather packets stored in our database for station/object DL4MGC-10. If no packets are shown the sender has not sent any weather packets the latest 10 day(s).

<< 19 20 21 22 23 24 25 >>
Time Temp. Humidity Pressure Rain* Wind** Luminosity Snow
1788245816 21.11° C 73% 1021.9 hPa - - - -
1788244916 20° C 76% 1021.9 hPa - - - -
1788244016 18.33° C 80% 1021.9 hPa - - - -
1788243116 16.67° C 87% 1021.8 hPa - - - -
1788242216 16.11° C 87% 1021.8 hPa - - - -
1788241315 15.56° C 89% 1021.8 hPa - - - -
1788240415 15° C 89% 1021.7 hPa - - - -
1788239515 14.44° C 91% 1021.6 hPa - - - -
1788238615 14.44° C 92% 1021.7 hPa - - - -
1788237715 14.44° C 92% 1021.6 hPa - - - -
1788236815 14.44° C 92% 1021.4 hPa - - - -
1788235915 14.44° C 91% 1021.5 hPa - - - -
1788235015 15° C 89% 1021.5 hPa - - - -
1788234115 15° C 88% 1021.4 hPa - - - -
1788233215 13.89° C 92% 1021.4 hPa - - - -
1788232314 15° C 87% 1021.3 hPa - - - -
1788231414 15.56° C 87% 1021.3 hPa - - - -
1788230514 16.11° C 84% 1021.4 hPa - - - -
1788229614 16.67° C 81% 1021.3 hPa - - - -
1788228714 17.22° C 81% 1021.3 hPa - - - -
1788227814 17.22° C 80% 1021.3 hPa - - - -
1788226914 17.22° C 81% 1021.3 hPa - - - -
1788226014 17.22° C 79% 1021.2 hPa - - - -
1788224213 17.78° C 79% 1021.1 hPa - - - -
1788223313 18.33° C 77% 1021 hPa - - - -

* Rain since midnight (hover to see other rain measurements)
** Current wind speed in m/s (hover to see current wind gust speed)